CAPE
1 1 2 3 2 1 2 5 7 6 4 3 2 1 3 3 1 0 0 0 0 0 0 0 0 0 0 0 0 0 0 0
1 2 4 4 2 4 7 9 5 3 3 3 2 3 3 1 0 0 0 0 0 0 0 0 0 0 0 0 0 0 0 0
0 3 4 5 6 6 6 6 4 2 3 2 3 4 1 0 0 0 0 0 0 0 0 0 0 0 0 0 0 0 0 0
4 4 4 5 6 6 5 4 4 3 2 2 1 2 0 0 0 0 0 0 0 0 0 0 0 0 0 0 0 0 0 0
8 6 6 6 5 4 5 5 4 4 2 2 1 0 0 0 0 0 0 0 0 0 0 0 0 0 0 0 0 0 0 0
3 2 3 3 3 2 1 2 3 4 2 2 0 0 0 0 0 0 0 0 0 0 0 0 0 0 0 0 0 0 0 0
0 1 2 3 1 3 2 3 3 2 1 1 0 0 0 0 0 0 0 0 0 0 0 0 0 0 0 0 0 0 0 0
0 0 0 1 3 3 2 2 3 0 0 0 0 0 0 0 0 0 0 0 0 0 0 0 0 0 0 0 0 0 0 0
0 0 0 2 2 2 2 2 1 0 0 0 0 0 0 0 0 0 0 0 0 0 0 0 0 0 0 0 0 0 0 0
3 2 1 2 2 2 2 1 0 0 0 0 0 0 0 0 0 0 0 0 0 0 0 0 0 0 0 0 0 0 0 0
2 2 0 2 1 0 0 0 0 0 0 0 0 0 0 0 0 0 0 0 0 0 0 0 0 0 0 0 0 0 0 0
1 0 0 0 0 0 0 0 0 0 0 0 0 0 0 0 0 0 0 0 0 0 0 0 0 0 0 0 0 0 0 0
1 1 1 0 0 0 0 0 0 0 0 0 0 0 0 0 0 0 0 0 0 0 0 0 0 0 0 0 0 0 0 0
0 0 0 0 0 0 0 0 0 0 0 0 0 0 0 0 0 0 0 0 0 0 0 0 0 0 0 0 0 0 0 0
0 0 1 0 0 0 0 0 0 0 0 0 0 0 0 0 0 0 0 0 0 0 0 0 0 0 0 0 0 2 0 0
0 0 0 0 0 0 0 0 0 0 0 0 0 0 0 0 0 0 0 0 0 0 0 0 0 0 0 1 0 0 0 0
0 0 0 0 0 0 0 0 0 0 0 0 0 0 0 0 0 0 0 0 0 0 0 0 0 0 1 1 0 0 0 0
0 0 0 0 0 0 0 0 0 0 0 0 0 0 0 0 0 0 0 0 0 0 0 0 0 0 0 1 1 0 0 0
0 0 0 0 0 0 0 0 0 0 0 0 0 0 0 0 0 0 0 0 0 0 0 0 0 0 0 0 0 0 0 0
0 0 0 0 0 0 0 0 0 0 0 0 0 0 0 0 0 0 0 0 0 0 0 0 0 0 0 0 0 0 0 0
CIN
0 0 0 0 0 0 0 0 0 0 0 0 0 0 0 0 0 0 0 0 0 0 0 0 0 0 0 0 0 0 0 0
0 0 0 0 0 0 0 0 0 0 0 0 0 0 0 0 0 0 0 0 0 0 0 0 0 0 0 0 0 0 0 0
0 0 0 0 0 0 0 0 0 0 0 0 0 0 0 0 0 0 0 0 0 0 0 0 0 0 0 0 0 0 0 0
0 0 0 0 0 0 0 0 0 0 0 0 0 0 0 0 0 0 0 0 0 0 0 0 0 0 0 0 0 0 0 0
0 0 0 0 0 0 0 0 0 0 0 0 0 0 0 0 0 0 0 0 0 0 0 0 0 0 0 0 0 0 0 0
0 0 0 0 0 0 0 0 0 0 0 0 0 0 0 0 0 0 0 0 0 0 0 0 0 0 0 0 0 0 0 0
0 0 0 0 0 0 0 0 0 0 0 0 0 0 0 0 0 0 0 0 0 0 0 0 0 0 0 0 0 0 0 0
0 0 0 0 0 0 0 0 0 0 0 0 0 0 0 0 0 0 0 0 0 0 0 0 0 0 0 0 0 0 0 0
0 0 0 0 0 0 0 0 0 0 0 0 0 0 0 0 0 0 0 0 0 0 0 0 0 0 0 0 0 0 0 0
0 0 0 0 0 0 0 0 0 0 0 0 0 0 0 0 0 0 0 0 0 0 0 0 0 0 0 0 0 0 0 0
0 0 0 0 0 0 0 0 0 0 0 0 0 0 0 0 0 0 0 0 0 0 0 0 0 0 0 0 0 0 0 0
0 0 0 0 0 0 0 0 0 0 0 0 0 0 0 0 0 0 0 0 0 0 0 0 0 0 0 0 0 0 0 0
0 0 0 0 0 0 0 0 0 0 0 0 0 0 0 0 0 0 0 0 0 0 0 0 0 0 0 0 0 0 0 0
0 0 0 0 0 0 0 0 0 0 0 0 0 0 0 0 0 0 0 0 0 0 0 0 0 0 0 0 0 0 0 0
0 0 0 0 0 0 0 0 0 0 0 0 0 0 0 0 0 0 0 0 0 0 0 0 0 0 0 0 0 0 0 0
0 0 0 0 0 0 0 0 0 0 0 0 0 0 0 0 0 0 0 0 0 0 0 0 0 0 0 0 0 0 0 0
0 0 0 0 0 0 0 0 0 0 0 0 0 0 0 0 0 0 0 0 0 0 0 0 0 0 0 -2 0 0 0 0
0 0 0 0 0 0 0 0 0 0 0 0 0 0 0 0 0 0 0 0 0 0 0 0 0 0 0 0 0 0 0 0
0 0 0 0 0 0 0 0 0 0 0 0 0 0 0 0 0 0 0 0 0 0 0 0 0 0 0 0 0 0 0 0
0 0 0 0 0 0 0 0 0 0 0 0 0 0 0 0 0 0 0 0 0 0 0 0 0 0 0 0 0 0 0 0
Wind_Speed
30 30 31 28 25 25 26 24 20 17 15 14 12 9 7 5 4 3 3 4 7 8 9 10 12 13 15 17 19 19 20 21
27 27 28 26 26 23 21 19 18 16 13 13 9 7 6 2 2 1 4 5 6 7 8 10 12 14 16 17 18 20 21 23
25 25 27 27 25 21 19 17 15 14 13 11 7 8 5 1 2 2 4 6 7 8 9 11 14 15 16 18 19 21 22 24
24 24 26 26 26 24 19 16 11 10 8 7 6 5 2 3 4 4 4 6 8 9 11 13 14 15 17 19 20 21 22 23
24 25 24 23 22 17 14 14 9 10 7 7 6 3 4 4 5 5 6 7 8 11 13 14 15 17 18 19 20 21 23 24
21 21 20 17 15 12 13 10 9 10 10 6 4 4 5 6 5 6 8 10 11 11 13 15 16 18 19 20 21 22 24 25
17 16 17 13 14 11 9 10 11 9 9 6 7 6 3 4 7 9 11 10 11 13 14 16 17 17 19 20 22 23 25 28
12 12 13 13 12 10 10 9 9 9 8 9 7 6 6 9 12 11 10 11 12 14 15 17 17 18 19 22 23 25 27 28
10 10 9 11 12 13 13 13 12 10 8 8 10 12 13 11 10 10 11 12 13 15 16 17 18 19 21 23 25 26 27 29
10 13 12 11 13 15 12 11 9 10 13 15 13 12 11 9 10 11 12 13 15 16 17 18 19 21 23 24 25 27 29 31
10 9 10 10 10 9 9 13 16 19 17 14 12 10 10 10 11 12 13 15 16 18 19 21 21 23 25 25 26 30 32 31
5 6 5 4 12 19 26 22 19 15 12 11 11 11 12 12 13 13 15 16 16 18 19 21 23 24 25 26 29 31 31 32
12 23 30 26 21 23 21 12 12 13 13 12 12 12 12 13 14 16 16 18 19 20 22 22 23 24 26 28 30 30 32 32
28 25 14 11 13 13 12 14 14 13 13 13 13 13 13 14 16 16 17 18 20 21 22 24 24 26 28 29 30 31 31 31
16 17 14 13 14 15 15 14 14 13 12 11 12 13 14 15 15 16 18 19 20 21 23 25 27 28 29 30 31 30 30 32
15 14 13 14 14 14 13 13 13 12 12 12 13 13 15 16 17 17 19 19 21 24 25 26 27 28 30 32 31 31 31 33
17 16 16 16 15 15 14 14 14 13 13 13 13 13 14 15 18 19 19 22 23 24 25 25 27 28 30 29 31 33 34 36
17 18 18 18 18 17 16 14 13 13 12 13 13 14 14 15 16 19 21 22 24 25 26 27 28 29 30 31 33 33 35 37
18 19 19 19 18 16 15 15 14 13 13 13 14 14 14 16 17 18 19 21 23 25 26 28 29 30 31 33 34 35 36 38
18 19 18 17 17 17 16 15 14 13 14 14 15 16 17 18 19 20 21 22 24 26 26 28 30 29 31 33 35 37 39 39
Wind_Direction
236 230 225 224 225 227 234 235 239 241 243 244 249 242 234 242 236 257 309 342 338 347 8 10 7 12 7 3 1 6 4 360
234 231 228 220 219 225 227 231 242 243 241 242 228 216 203 175 226 321 348 360 4 8 6 9 10 4 5 10 11 2 359 357
230 230 226 223 219 221 223 233 238 240 237 231 226 191 165 169 64 7 23 37 25 29 22 13 8 15 17 6 1 358 356 357
226 228 223 222 223 226 232 231 223 218 212 188 186 191 152 92 67 46 23 29 31 22 15 24 24 10 5 3 0 0 360 358
227 226 223 219 220 218 221 202 187 176 168 176 150 120 82 83 65 49 42 32 17 26 31 16 9 5 3 2 2 1 359 357
222 215 209 199 203 192 183 189 154 154 153 144 114 98 84 82 63 52 39 38 47 28 11 9 5 3 2 2 1 359 356 353
211 195 194 190 184 171 156 150 136 135 123 116 107 97 74 60 57 54 56 37 20 11 10 6 3 7 5 2 359 356 352 347
191 182 183 177 164 143 149 138 128 114 110 105 102 89 72 71 72 58 39 22 13 10 9 6 7 6 4 359 355 352 351 348
160 136 126 121 133 117 110 109 109 107 100 89 85 83 81 67 48 31 23 18 15 11 7 5 3 2 358 355 352 350 350 347
122 103 110 117 108 103 102 105 94 83 83 85 84 77 64 44 31 26 23 16 12 9 5 2 0 356 353 352 350 348 346 344
95 97 97 95 94 97 93 86 87 89 86 77 73 64 48 39 33 24 19 13 8 5 3 359 359 355 354 352 348 345 344 345
100 84 96 116 87 86 101 92 86 76 66 61 56 52 48 41 30 24 14 9 8 5 4 360 357 356 354 352 348 346 346 346
173 148 120 101 92 94 90 64 64 67 66 60 55 48 47 40 26 15 12 5 2 0 358 358 357 355 353 351 349 349 347 347
100 97 65 58 70 74 68 73 68 72 65 60 51 44 35 22 11 10 7 3 359 357 356 355 355 353 352 352 351 350 349 350
54 65 59 60 67 74 80 77 72 66 57 51 39 28 26 22 17 9 4 1 0 358 355 354 353 353 354 354 353 352 353 351
42 45 44 56 60 67 73 71 64 58 51 45 43 35 22 19 12 9 8 6 1 358 356 353 354 355 355 354 355 354 353 350
45 50 52 58 65 71 69 74 75 63 54 40 32 26 21 16 12 18 15 7 6 3 360 359 359 357 355 357 354 352 351 348
43 50 58 65 71 74 73 70 68 55 43 32 27 22 20 18 13 8 10 8 4 3 3 1 357 356 356 355 353 352 351 348
47 50 62 67 62 63 65 59 49 45 42 35 28 26 22 16 11 8 5 2 2 3 1 359 357 356 356 354 353 351 350 348
57 57 61 59 51 48 54 58 58 48 36 33 29 23 18 15 12 10 8 6 2 359 358 358 357 356 356 355 353 350 349 348